SCP
0 0 0 0 0 0 0 0 0 0 0 0 0 0 0 0 0 0 0 0 0 0 0 0 0 0 0 0 0 0 0 0 0 0 0 0 0 0 0 0 0 0 0 0 0 0 0 0 0
0 0 0 0 0 0 0 0 0 0 0 0 0 0 0 0 0 0 0 0 0 0 0 0 0 0 0 0 0 0 0 0 0 0 0 0 0 0 0 0 0 0 0 0 0 0 0 0 0
0 0 0 0 0 0 0 0 0 0 0 0 0 0 0 0 1 1 1 1 1 1 0 0 0 0 0 0 0 0 0 0 0 0 0 0 0 0 0 0 0 0 0 0 0 0 0 0 0
0 0 0 0 0 0 0 0 0 0 0 0 0 0 1 1 1 1 1 1 1 1 1 1 1 0 0 0 0 0 0 0 0 0 0 0 0 0 0 0 0 0 0 0 0 0 0 0 0
0 0 0 0 0 0 0 0 0 0 0 0 0 1 1 1 1 1 1 1 1 1 1 1 1 1 0 0 0 0 0 0 0 0 0 0 0 0 0 0 0 0 0 0 0 0 0 0 0
0 0 0 0 0 0 0 0 0 0 0 0 0 1 1 2 2 2 1 1 1 1 1 1 1 1 0 0 0 0 0 0 0 0 0 0 0 0 0 0 0 0 0 0 0 0 0 0 0
0 0 0 0 0 0 0 0 0 0 0 0 0 1 1 2 2 2 1 1 1 1 1 1 1 1 0 0 0 0 0 0 0 0 0 0 0 0 0 0 0 0 0 0 0 0 0 0 0
1 0 0 0 0 0 0 0 0 0 0 0 0 1 1 1 2 2 2 1 1 1 1 1 1 1 0 0 0 0 0 0 0 0 0 0 0 0 0 0 0 0 0 0 0 0 0 0 0
1 0 0 0 0 0 0 0 0 0 0 1 1 1 1 1 2 2 2 1 1 1 1 1 1 1 0 0 0 0 0 0 0 0 0 0 0 0 0 0 0 0 0 0 0 0 0 0 0
1 0 0 0 0 0 0 0 0 0 0 1 1 1 1 1 2 2 2 1 1 1 1 1 1 1 0 0 0 0 0 0 0 0 0 0 0 0 0 0 0 0 0 0 0 0 0 0 0
0 0 0 0 0 0 0 0 0 0 0 0 1 1 1 1 1 1 1 1 1 2 1 1 1 1 1 0 0 0 0 0 0 0 0 0 0 0 0 0 0 0 0 0 0 0 0 0 0
0 0 0 0 0 0 0 0 0 0 0 0 1 1 1 1 1 1 1 1 1 1 1 1 1 1 1 0 0 0 0 0 0 0 0 0 0 0 0 0 0 0 0 0 0 0 0 0 0
0 0 0 0 0 0 0 0 0 0 0 0 1 1 1 1 1 1 1 1 1 1 1 1 1 1 0 0 0 0 0 0 0 0 0 0 0 0 0 0 0 0 0 0 0 0 0 0 0
0 0 0 0 0 0 0 0 0 0 0 0 1 1 1 1 1 1 1 1 1 1 1 0 0 0 0 0 0 0 0 0 0 0 0 0 0 0 0 0 0 0 0 0 0 0 0 0 0
0 0 0 0 0 0 0 0 0 0 0 0 1 1 1 1 1 1 1 1 1 1 0 0 0 0 0 0 0 0 0 0 0 0 0 0 0 0 0 0 0 0 0 0 0 0 0 0 0
0 0 0 0 0 0 0 0 0 0 0 0 0 1 1 1 1 1 1 1 1 0 0 0 0 0 0 0 0 0 0 0 0 0 0 0 0 0 0 0 0 0 0 0 0 0 0 0 0
0 0 0 0 0 0 0 0 0 0 0 0 0 0 0 0 0 0 1 0 0 0 0 0 0 0 0 0 0 0 0 0 0 0 0 0 0 0 0 0 0 0 0 0 0 0 0 0 0
0 0 0 0 0 0 0 0 0 0 0 0 0 0 0 0 0 0 0 0 0 0 0 0 0 0 0 0 0 0 0 0 0 0 0 0 0 0 0 0 0 0 0 0 0 0 0 0 0
0 0 0 0 0 0 0 0 0 0 0 0 0 0 0 0 0 0 0 0 0 0 0 0 0 0 0 0 0 0 0 0 0 0 0 0 0 0 0 0 0 0 0 0 0 0 0 0 0
0 0 0 0 0 0 0 0 0 0 0 0 0 0 0 0 0 0 0 0 0 0 0 0 0 0 0 0 0 0 0 0 0 0 0 0 0 0 0 0 0 0 0 0 0 0 0 0 0
0 0 0 0 0 0 0 0 0 0 0 0 0 0 0 0 0 0 0 0 0 0 0 0 0 0 0 0 0 0 0 0 0 0 0 0 0 0 0 0 0 0 0 0 0 0 0 0 0
0 0 0 0 0 0 0 0 0 0 0 0 0 0 0 0 0 0 0 0 0 0 0 0 0 0 0 0 0 0 0 0 0 0 0 0 0 0 0 0 0 0 0 0 0 0 0 0 0
0 0 0 0 0 0 0 0 0 0 0 0 0 0 0 0 0 0 0 0 0 0 0 0 0 0 0 0 0 0 0 0 0 0 0 0 0 0 0 0 0 0 0 0 0 0 0 0 0
0 0 0 0 0 0 0 0 0 0 0 0 0 0 0 0 0 0 0 0 0 0 0 0 0 0 0 0 0 0 0 0 0 0 0 0 0 0 0 0 0 0 0 0 0 0 0 0 0
0 0 0 0 0 0 0 0 0 0 0 0 0 0 0 0 0 0 0 0 0 0 0 0 0 0 0 0 0 0 0 0 0 0 0 0 0 0 0 0 0 0 0 0 0 0 0 0 0
0 0 0 0 0 0 0 0 0 0 0 0 0 0 0 0 0 0 0 0 0 0 0 0 0 0 0 0 0 0 0 0 0 0 0 0 0 0 0 0 0 0 0 0 0 0 0 0 0
0 0 0 0 0 0 0 0 0 0 0 0 0 0 0 0 0 0 0 0 0 0 0 0 0 0 0 0 0 0 0 0 0 0 0 0 0 0 0 0 0 0 0 0 0 0 0 0 0
0 0 0 0 0 0 0 0 0 0 0 0 0 0 0 0 0 0 0 0 0 0 0 0 0 0 0 0 0 0 0 0 0 0 0 0 0 0 0 0 0 0 0 0 0 0 0 0 0
0 0 0 0 0 0 0 0 0 0 0 0 0 0 0 0 0 0 0 0 0 0 0 0 0 0 0 0 0 0 0 0 0 0 0 0 0 0 0 0 0 0 0 0 0 0 0 0 0
0 0 0 0 0 0 0 0 0 0 0 0 0 0 0 0 0 0 0 0 0 0 0 0 0 0 0 0 0 0 0 0 0 0 0 0 0 0 0 0 0 0 0 0 0 0 0 0 0
Wind_Speed
7 4 2 4 6 5 3 5 3 3 2 1 0 4 6 5 5 3 2 7 9 10 9 12 13 13 13 13 13 12 11 10 9 9 10 10 10 11 11 11 11 11 12 12 12 13 13 13 13
3 2 4 5 5 2 5 4 4 4 2 1 2 3 4 2 1 4 4 5 10 10 8 9 13 13 14 14 13 12 11 10 9 9 9 10 11 11 11 11 11 11 12 12 12 12 12 12 11
2 2 4 5 4 6 5 3 4 4 3 1 2 3 3 2 2 5 4 9 10 8 7 9 13 14 14 14 13 12 10 9 9 9 9 10 11 11 11 11 11 11 11 11 11 11 11 10 10
1 4 5 4 5 6 4 1 2 4 2 1 3 3 2 2 2 4 8 11 10 7 7 10 14 14 14 14 13 12 10 9 9 8 9 10 10 10 11 11 10 10 9 10 10 9 9 9 9
2 3 3 2 5 4 3 3 2 2 2 1 3 3 2 5 3 9 11 12 10 8 7 10 14 15 14 14 12 11 10 9 8 8 9 10 11 11 11 10 9 8 8 8 8 8 8 8 8
3 4 4 5 5 3 2 2 2 2 1 1 3 3 2 2 6 9 10 10 8 8 7 9 13 14 13 13 12 11 10 9 8 8 8 9 10 10 10 9 8 7 6 6 6 6 6 7 7
4 5 5 6 4 3 1 1 2 2 1 0 3 4 2 2 5 7 8 8 7 6 6 6 8 10 12 11 10 9 8 7 7 7 8 8 8 8 8 8 7 6 5 4 4 4 4 5 5
4 5 5 5 6 4 1 2 2 1 1 2 1 5 5 5 7 8 8 7 6 5 5 5 6 7 7 7 9 8 7 6 6 7 7 7 7 6 6 5 5 4 4 3 2 1 2 3 4
3 4 8 9 8 4 1 3 5 2 2 3 3 1 2 9 10 10 8 6 6 6 5 5 6 6 6 6 6 7 6 6 5 5 6 5 3 3 3 3 3 3 3 3 2 1 0 3 4
4 7 10 7 5 4 2 2 3 5 5 4 5 5 4 9 12 11 11 10 9 8 6 5 5 6 5 5 4 3 3 3 3 3 3 3 2 1 1 1 2 2 2 2 3 3 1 2 2
5 7 5 3 3 3 2 2 2 4 3 2 3 1 5 9 11 11 11 10 9 8 7 6 5 5 5 4 3 2 2 2 3 3 4 3 2 1 1 0 1 1 2 1 2 2 1 0 0
4 2 4 3 2 3 2 1 3 1 3 3 3 2 5 10 12 12 12 10 8 7 7 6 6 5 5 4 3 3 3 2 3 3 4 3 2 2 2 1 2 2 1 2 2 1 2 2 2
3 3 3 3 4 3 2 0 2 6 4 4 3 1 4 7 8 6 7 7 7 7 7 6 6 6 5 4 3 4 4 4 4 3 4 4 3 3 3 2 2 3 2 3 3 3 3 3 3
5 3 4 4 4 2 1 1 1 7 3 5 4 2 3 5 6 5 6 7 7 7 7 6 6 6 5 5 4 4 4 4 3 4 5 5 4 4 4 4 3 4 4 4 4 4 4 3 3
5 5 4 3 4 3 3 5 7 8 4 5 5 4 4 3 4 6 6 6 6 5 5 5 6 5 6 6 5 4 4 4 4 4 5 6 5 5 5 4 4 4 4 4 3 4 3 4 4
5 6 5 4 6 4 7 9 10 6 3 6 6 5 4 4 4 4 4 4 5 4 4 4 5 5 5 5 5 3 4 4 4 4 4 6 6 6 5 4 5 5 4 4 4 4 4 4 4
4 7 7 5 7 6 8 7 7 4 5 8 7 6 5 4 3 3 2 3 3 4 4 4 3 4 4 4 3 3 3 3 3 3 3 4 6 6 5 5 5 4 4 4 5 5 4 5 5
9 8 7 7 9 9 10 8 5 6 8 9 8 6 5 5 5 2 0 1 2 2 3 3 2 2 2 2 2 1 1 2 2 2 3 3 3 5 5 5 5 4 4 4 5 6 5 5 4
7 7 6 4 5 8 11 8 6 5 6 8 9 8 7 6 3 0 1 2 3 3 3 3 3 1 2 1 1 1 2 1 1 2 2 3 3 3 4 4 4 4 5 6 6 5 5 5 3
7 8 5 3 4 5 5 6 5 5 7 9 10 10 8 6 3 3 2 2 3 3 3 3 3 2 2 1 1 1 1 1 1 0 1 1 2 2 2 3 3 4 4 5 5 5 3 3 4
4 8 7 5 3 2 4 3 6 7 6 7 8 8 7 8 8 6 4 3 3 3 3 3 3 3 3 2 1 2 2 2 2 2 2 3 3 2 2 3 3 3 3 4 5 5 6 5 3
3 5 7 6 6 1 3 4 7 8 8 10 11 10 9 8 7 6 6 5 4 3 3 4 4 4 4 3 2 2 1 0 1 1 2 3 4 4 3 3 3 3 2 3 4 4 4 5 4
3 4 5 5 5 1 1 3 8 4 9 14 14 12 11 9 9 9 7 6 5 4 4 4 5 5 4 4 3 3 2 0 1 2 2 3 3 4 5 4 3 3 2 3 3 3 3 3 4
6 7 8 5 4 3 5 5 9 7 10 8 9 11 11 9 8 7 6 6 5 4 4 4 5 5 4 5 4 4 3 2 2 2 3 3 2 3 6 5 4 4 3 3 3 3 3 3 4
4 7 4 2 3 5 3 5 11 8 8 8 8 8 8 9 10 10 9 8 6 5 5 4 5 5 4 5 5 4 3 3 2 2 2 3 3 3 5 5 5 4 4 4 3 2 2 2 3
4 6 7 6 6 3 2 9 10 7 5 6 7 6 6 8 9 10 10 8 7 6 5 5 5 4 4 4 4 4 4 3 2 3 2 3 2 2 4 5 5 5 5 5 4 3 3 3 3
6 3 4 5 2 1 6 7 11 5 6 5 5 4 7 8 9 8 8 7 7 6 5 5 5 5 4 4 4 4 4 4 4 3 3 3 3 3 5 5 5 5 6 6 5 4 4 4 4
3 7 5 5 4 4 5 5 6 6 6 5 4 5 6 7 7 7 7 6 6 5 5 5 5 5 4 4 3 4 4 4 4 4 5 4 4 4 4 5 5 6 6 6 6 5 5 6 6
4 3 4 4 3 4 4 7 6 6 6 7 7 5 6 7 8 7 6 6 6 5 5 5 5 5 4 4 4 4 4 4 4 4 4 4 4 5 5 5 5 6 7 7 6 7 7 8 7
3 5 6 5 4 4 3 9 4 4 7 6 6 5 6 6 6 6 6 6 6 5 5 5 4 4 4 4 4 4 4 4 4 4 4 4 4 5 5 5 6 7 7 7 7 8 8 8 8
Wind_Direction
340 354 46 54 56 58 229 244 241 277 247 267 327 131 141 144 163 180 118 142 137 144 151 149 150 146 143 136 130 126 122 119 117 116 117 117 114 110 106 100 94 90 88 87 88 89 90 91 91
338 2 51 63 97 144 254 247 245 246 279 53 60 84 88 79 71 112 134 154 143 145 144 145 148 144 140 135 132 129 126 123 121 122 123 124 120 115 110 104 98 95 91 90 90 91 91 91 91
330 40 82 85 133 181 229 234 243 287 284 202 71 55 93 94 142 156 160 150 138 139 138 145 145 143 139 136 134 130 128 126 125 127 128 130 127 120 115 108 103 100 97 96 95 94 91 88 88
61 56 63 102 193 213 220 261 305 328 351 97 111 76 63 8 224 158 141 144 135 133 136 145 142 141 139 139 138 135 132 130 130 133 133 132 132 124 118 112 109 107 104 102 99 95 91 85 82
66 93 101 157 219 240 245 272 302 340 322 54 110 109 29 352 80 127 138 144 141 136 138 144 143 143 143 142 141 139 136 136 138 138 138 133 131 125 121 119 118 114 111 108 105 99 92 84 79
88 96 142 198 224 254 265 283 347 0 329 79 116 99 32 27 121 133 138 139 138 138 140 145 146 145 144 144 144 144 142 142 142 142 137 132 130 128 129 129 127 124 120 115 109 100 92 83 79
140 146 178 184 198 239 258 331 67 4 352 264 142 108 103 120 133 126 125 126 127 131 137 142 144 144 145 144 145 148 147 143 142 142 133 126 127 134 140 141 141 139 135 125 114 100 87 78 75
150 146 167 178 183 213 268 33 49 29 324 350 86 144 171 174 137 117 115 120 127 127 133 135 137 138 139 142 148 149 150 145 140 133 127 124 129 135 143 147 152 157 157 151 142 118 83 66 66
125 159 190 188 184 190 110 50 358 351 55 26 11 343 192 137 133 128 129 134 146 148 143 140 138 136 136 140 149 149 152 151 140 132 137 124 113 118 133 154 167 177 185 195 213 233 358 61 50
157 194 204 188 172 156 112 73 14 23 21 29 17 17 100 139 148 152 157 162 167 169 164 154 151 146 143 145 135 137 139 144 138 139 138 128 129 132 136 195 209 220 225 236 253 262 309 57 50
171 200 195 181 165 131 93 39 39 50 18 35 335 283 152 161 163 167 171 172 176 174 172 169 163 155 151 143 141 143 143 149 158 163 161 152 148 155 150 171 277 273 261 275 305 322 336 12 58
169 208 171 157 129 110 102 21 9 57 247 303 291 222 179 180 180 179 178 178 175 174 181 176 170 165 164 155 159 163 165 172 181 186 177 166 174 196 207 212 221 223 225 232 246 258 267 268 260
186 170 158 131 114 119 102 120 303 283 286 344 5 102 195 196 197 186 180 176 174 183 186 182 174 175 172 167 173 179 188 192 193 188 189 187 191 205 212 220 221 222 217 220 229 239 251 259 261
181 154 138 126 121 119 111 300 309 273 332 350 343 297 240 212 201 182 176 180 184 187 187 181 181 183 177 180 186 190 195 197 193 199 202 198 201 207 210 221 224 225 219 218 220 228 237 248 252
139 133 126 150 138 127 95 280 247 260 318 313 302 292 277 246 221 206 192 187 186 185 181 180 185 182 185 193 197 197 199 197 204 211 207 205 206 211 213 220 226 229 221 221 226 235 233 244 244
118 133 165 189 156 143 152 237 249 255 263 275 281 283 278 272 242 232 204 189 183 176 176 184 188 180 190 196 199 199 200 202 214 216 212 213 214 213 213 221 230 226 215 214 222 227 233 241 240
143 165 174 177 174 157 173 229 244 220 221 247 256 257 259 273 273 257 223 192 176 174 171 173 178 177 191 197 195 197 195 204 216 217 219 221 220 217 216 226 230 217 215 218 225 224 218 237 240
170 159 164 179 178 169 191 221 233 200 209 234 244 246 245 245 253 265 342 97 101 110 130 143 145 154 171 170 167 178 196 216 218 219 228 229 227 222 220 229 229 214 218 225 223 232 226 233 242
136 138 155 178 173 175 199 215 226 202 214 232 236 237 235 237 247 256 100 107 99 84 97 106 114 98 109 120 146 172 209 216 218 224 232 236 237 230 223 234 230 216 222 231 226 227 235 240 221
136 141 147 133 150 166 194 224 235 217 214 225 228 227 226 219 213 196 171 118 113 110 98 92 88 79 82 118 139 154 158 184 204 264 294 290 273 257 238 238 240 230 232 238 233 221 228 232 191
154 160 155 142 107 85 123 247 239 242 228 233 237 230 222 208 204 195 179 155 129 115 111 104 90 74 55 56 83 65 53 30 17 5 357 350 342 328 297 272 258 249 234 243 241 227 228 241 224
155 167 143 132 125 173 163 235 251 230 237 234 233 229 223 211 195 190 181 164 147 131 110 98 87 72 52 51 79 111 132 187 338 345 343 348 3 1 352 333 310 287 267 259 258 244 234 237 244
140 128 118 121 121 105 181 215 271 225 234 236 230 225 220 207 191 186 179 161 139 126 112 99 87 69 54 55 71 88 89 71 350 358 1 3 8 14 8 358 347 329 306 289 280 271 252 239 242
123 89 66 59 86 232 208 194 266 226 221 234 230 223 215 199 185 171 154 139 128 117 108 102 92 73 58 62 62 77 87 65 39 17 5 2 2 10 10 3 1 351 340 322 303 286 272 261 254
118 112 100 117 193 242 197 209 248 241 227 226 239 233 212 188 174 166 161 157 148 136 122 110 102 84 68 69 63 62 71 71 60 29 19 13 8 6 359 1 360 356 348 341 335 325 312 296 278
157 139 153 173 196 245 225 235 254 256 261 255 255 244 200 184 177 172 167 159 152 143 131 121 110 98 82 77 69 56 56 62 54 42 40 32 17 8 360 3 6 4 360 357 357 6 359 359 355
135 140 137 118 114 211 253 279 298 270 270 264 259 222 196 182 174 166 158 154 151 146 140 136 125 111 96 92 85 65 56 58 54 44 42 35 18 17 17 15 18 15 14 12 17 30 22 25 26
136 140 115 125 158 234 272 265 254 282 282 285 259 226 199 172 163 158 157 156 151 144 134 129 127 122 112 99 89 85 65 60 58 55 48 40 27 24 24 26 27 28 27 27 35 39 35 47 41
129 131 131 136 164 177 254 269 231 246 277 277 259 222 190 175 170 166 161 154 144 138 137 134 130 123 114 104 94 87 73 66 64 60 51 43 37 34 37 35 38 41 38 35 45 48 47 53 49
168 170 153 165 211 193 204 268 273 266 279 267 248 203 183 177 170 162 156 151 151 153 152 148 143 135 130 120 108 98 87 79 74 66 58 53 50 45 45 46 50 51 48 45 50 54 54 57 55